Tracking 26442 objects as of 7-Dec-2022
HD Live streaming from Space Station
objects crossing your sky now

STARLINK-5256

Track STARLINK-5256 now!
10-day predictions
STARLINK-5256 is classified as:


NORAD ID: 54175
Int'l Code: 2022-141U
Perigee: 364.1 km
Apogee: 370.2 km
Inclination: 53.2 °
Period: 91.7 minutes
Semi major axis: 6738 km
RCS: Unknown
Launch date: October 28, 2022
Source: United States (US)
Launch site: AIR FORCE WESTERN TEST RANGE (AFWTR)
aabbcc
Your satellite tracking list
Your tracking list is empty




NASA's NSSDC Master Catalog

Two Line Element Set (TLE):
1 54175U 22141U   22340.58335648 -.01147713  00000-0 -10675-1 0  9991
2 54175  53.2169 308.2467 0004555 271.1996 230.3123 15.69609175  1301
Source of the keplerian elements: AFSPC